This is the latest recevied weather packets stored in our database for station/object KE2HEH. If no packets are shown the sender has not sent any weather packets the latest 10 day(s).
| Time | Temp. | Humidity | Pressure | Rain* | Wind** | Luminosity | Snow |
|---|---|---|---|---|---|---|---|
| 1778226352 | 10° C | 70% | 1011.5 hPa | 0 mm | - | 0 W/m² | - |
| 1778226049 | 10° C | 70% | 1011.4 hPa | 0 mm | - | 0 W/m² | - |
| 1778225747 | 10° C | 72% | 1011.2 hPa | 0 mm | - | 0 W/m² | - |
| 1778225444 | 10° C | 76% | 1011.4 hPa | 0 mm | - | 0 W/m² | - |
| 1778225139 | 10° C | 79% | 1011.4 hPa | 0 mm | - | 0 W/m² | - |
| 1778224837 | 10° C | 75% | 1011.3 hPa | 0 mm | - | 0 W/m² | - |
| 1778224535 | 9.44° C | 78% | 1011.4 hPa | 0 mm | - | 0 W/m² | - |
| 1778224233 | 9.44° C | 81% | 1011.3 hPa | 0 mm | - | 0 W/m² | - |
| 1778223930 | 9.44° C | 84% | 1011.3 hPa | 0 mm | - | 0 W/m² | - |
| 1778223628 | 8.89° C | 87% | 1011.4 hPa | 0 mm | - | 0 W/m² | - |
| 1778223325 | 8.89° C | 89% | 1011.5 hPa | 0 mm | - | 0 W/m² | - |
| 1778223024 | 9.44° C | 90% | 1011.7 hPa | 0 mm | - | 0 W/m² | - |
| 1778222721 | 10.56° C | 91% | 1011.6 hPa | 0 mm | - | 0 W/m² | - |
| 1778222419 | 10.56° C | 92% | 1011.7 hPa | 0 mm | - | 0 W/m² | - |
| 1778222116 | 10.56° C | 92% | 1011.6 hPa | 0 mm | - | 0 W/m² | - |
| 1778221813 | 10.56° C | 92% | 1011.3 hPa | 0 mm | - | 0 W/m² | - |
| 1778221511 | 10.56° C | 92% | 1010.9 hPa | 0 mm | - | 0 W/m² | - |
| 1778221207 | 10° C | 92% | 1010.6 hPa | 0 mm | - | 0 W/m² | - |
| 1778220906 | 10° C | 92% | 1010.3 hPa | 0 mm | - | 0 W/m² | - |
| 1778220601 | 10° C | 92% | 1010.5 hPa | 0 mm | - | 0 W/m² | - |
| 1778220299 | 10° C | 92% | 1010.1 hPa | 0 mm | - | 0 W/m² | - |
| 1778219995 | 10° C | 92% | 1010.3 hPa | 0 mm | - | 0 W/m² | - |
| 1778219692 | 10° C | 92% | 1010.4 hPa | 0 mm | - | 0 W/m² | - |
| 1778219388 | 10.56° C | 92% | 1010.3 hPa | 0 mm | - | 0 W/m² | - |
| 1778219085 | 10.56° C | 92% | 1010.2 hPa | 0 mm | - | 0 W/m² | - |
* Rain latest hour (hover to see other rain measurements)
** Current wind speed in m/s (hover to see current wind gust speed)